Location: Cannifist
(18.2333°N, 63.0167°W)
Time: 02:18:22
(UTC+00:00)

GPS 2-18 Rocket1 - Pass Details

Date: 27 February 2020
Orbit: 459 x 516 km, 20.9° (Epoch: 08 April)

Event Time Altitude Azimuth Distance (km) Brightness Sun altitude
Rises 23:49:22 0° 271° (W) 2,576 8.2 -22.6°
Reaches altitude 10° 23:51:39 10° 275° (W) 1,683 6.9 -23.1°
Enters shadow 23:54:56 52° 315° (NW) 607 3.7 -23.9°
